Weather History for Frenchville, ME

Change the Weather History Date:

Sunday, February 27, 2011

  Actual Average Record
Temperature  
Mean Temperature 1 °F 17 °F  
Max Temperature 11 °F 26 °F 42 °F (2009)
Min Temperature -9 °F 9 °F -11 °F (2003)
Degree Days  
Heating Degree Days 64    
Month to date heating degree days 1445  
Since 1 July heating degree days 6538  
Cooling Degree Days 0    
Month to date cooling degree days 0  
Year to date cooling degree days 0  
Moisture  
Dew Point -9 °F    
Average Humidity 61    
Maximum Humidity 86    
Minimum Humidity 38    
Precipitation  
Precipitation T in 0.04 in 0.75 in (1998)
Month to date precipitation 0.60 0.77  
Year to date precipitation 1.16 2.53  
Sea Level Pressure  
Sea Level Pressure 30.14 in    
Wind  
Wind Speed 4 mph (SSE)    
Max Wind Speed 8 mph    
Max Gust Speed 10 mph    
Visibility 10 miles    
Events      
T = Trace of Precipitation, MM = Missing Value Source: NWS Daily Summary

Daily Weather History Graph

Daily Weather History Graph

Search for Another Location

Airport:

Trip Planner

Search our weather history database for the weather conditions in past years. The results will help you decide how hot, cold, wet, or windy it might be!

Date:

Astronomy

Feb. 27, 2011 Rise Set
Actual Time 6:17 AM EST 5:15 PM EST
Civil Twilight 5:46 AM EST 5:45 PM EST
Nautical Twilight 5:11 AM EST 6:21 PM EST
Astronomical Twilight 4:36 AM EST 6:56 PM EST
Moon 3:24 AM EST (2/27) 12:08 PM EST (2/27)
Length of Visible Light 11h 58m
Length of Day
10h 57m
Waning Crescent, 23% of the Moon is Illuminated
Feb 27
Waning Crescent
Mar 4
New
Mar 12
First Quarter
Mar 19
Full
Mar 26
Last Quarter

Hourly Weather History & Observations

Time (EST) Temp. Windchill Dew Point Humidity Pressure Visibility Wind Dir Wind Speed Gust Speed Precip Events Conditions
12:53 AM -2.9 °F -16.5 °F -9.0 °F 75% 30.10 in 10.0 mi West 6.9 mph - N/A   Clear
1:53 AM -2.9 °F -11.2 °F -9.0 °F 75% 30.11 in 10.0 mi WNW 3.5 mph - N/A   Clear
2:53 AM -4.0 °F - -9.9 °F 76% 30.09 in 10.0 mi Calm Calm - N/A   Clear
3:53 AM -8.0 °F -21.0 °F -11.0 °F 86% 30.12 in 10.0 mi WSW 5.8 mph - 0.00 in   Clear
4:53 AM -8.0 °F - -11.0 °F 86% 30.13 in 10.0 mi Calm Calm - N/A   Clear
5:53 AM -6.0 °F - -11.0 °F 79% 30.13 in 10.0 mi Calm Calm - N/A   Clear
6:53 AM -7.1 °F - -11.0 °F 83% 30.15 in 9.0 mi Calm Calm - N/A   Clear
7:53 AM -4.0 °F - -9.9 °F 76% 30.15 in 9.0 mi Calm Calm - N/A   Clear
8:53 AM -2.9 °F - -9.9 °F 72% 30.16 in 8.0 mi Calm Calm - N/A   Clear
9:53 AM 1.9 °F -9.2 °F -8.0 °F 63% 30.15 in 10.0 mi SSE 5.8 mph - N/A   Clear
10:53 AM 5.0 °F - -8.0 °F 55% 30.15 in 10.0 mi Calm Calm - N/A   Clear
11:53 AM 6.1 °F -0.9 °F -7.1 °F 55% 30.14 in 10.0 mi SE 3.5 mph - 0.00 in   Clear
12:53 PM 8.1 °F -4.3 °F -6.0 °F 53% 30.12 in 10.0 mi SSW 8.1 mph - N/A   Clear
1:53 PM 9.0 °F 0.6 °F -8.0 °F 46% 30.12 in 10.0 mi SE 4.6 mph - N/A   Clear
2:53 PM 10.4 °F 2.2 °F -7.6 °F 44% 30.04 in 10.0 mi South 4.6 mph - N/A   Clear
3:53 PM 10.9 °F 2.9 °F -8.0 °F 42% 30.13 in 10.0 mi SSE 4.6 mph - N/A   Clear
4:53 PM 9.0 °F -0.9 °F -9.0 °F 44% 30.13 in 10.0 mi SSE 5.8 mph - N/A   Clear
5:53 PM 10.0 °F 3.6 °F -11.0 °F 38% 30.14 in 10.0 mi East 3.5 mph - N/A   Clear
6:53 PM 6.1 °F -6.8 °F -9.9 °F 48% 30.16 in 10.0 mi SSE 8.1 mph - N/A   Clear
7:53 PM 6.1 °F -5.6 °F -9.0 °F 50% 30.16 in 10.0 mi SE 6.9 mph - N/A   Clear
8:53 PM 7.0 °F -1.7 °F -9.0 °F 48% 30.17 in 10.0 mi SE 4.6 mph - N/A   Clear
9:53 PM 5.0 °F -5.6 °F -8.0 °F 55% 30.17 in 10.0 mi SSE 5.8 mph - N/A   Clear
10:53 PM 5.0 °F -4.1 °F -8.0 °F 55% 30.16 in 10.0 mi SE 4.6 mph - N/A   Mostly Cloudy
11:53 PM 7.0 °F -1.7 °F -8.0 °F 51% 30.17 in 10.0 mi SE 4.6 mph - N/A   Overcast